Time,TemperatureF,DewpointF,PressureIn,WindDirection,WindDirectionDegrees,WindSpeedMPH,WindSpeedGustMPH,Humidity,HourlyPrecipIn,Conditions,Clouds,dailyrainin,SoftwareType,DateUTC
2013-01-19 07:50:00,36.3,28.8,30.34,South,184,2.0,2.0,74,0.00,,,0.00,Wunderground v.1.15,2013-01-19 12:50:00,
2013-01-19 07:55:00,36.5,28.7,30.34,South,179,3.0,3.0,73,0.00,,,0.00,Wunderground v.1.15,2013-01-19 12:55:00,
2013-01-19 08:00:00,36.7,28.9,30.34,SSE,152,3.0,3.0,73,0.00,,,0.00,Wunderground v.1.15,2013-01-19 13:00:00,
2013-01-19 08:05:00,36.9,29.1,30.34,SSW,205,3.0,5.0,73,0.00,,,0.00,Wunderground v.1.15,2013-01-19 13:05:00,
2013-01-19 08:10:00,37.3,29.1,30.34,South,190,3.0,3.0,72,0.00,,,0.00,Wunderground v.1.15,2013-01-19 13:10:00,
2013-01-19 08:20:00,38.4,29.5,30.35,SSE,155,3.0,13.0,70,0.00,,,0.00,Wunderground v.1.15,2013-01-19 13:20:00,
2013-01-19 08:25:00,38.8,29.1,30.35,South,182,3.0,13.0,68,0.00,,,0.00,Wunderground v.1.15,2013-01-19 13:25:00,
2013-01-19 08:30:00,39.2,29.2,30.35,SW,226,3.0,13.0,67,0.00,,,0.00,Wunderground v.1.15,2013-01-19 13:30:00,
2013-01-19 08:40:00,39.8,29.4,30.35,South,190,3.0,13.0,66,0.00,,,0.00,Wunderground v.1.15,2013-01-19 13:40:00,
2013-01-19 08:45:00,40.1,29.3,30.35,SE,141,4.0,13.0,65,0.00,,,0.00,Wunderground v.1.15,2013-01-19 13:45:00,
2013-01-19 08:50:00,40.4,29.6,30.35,South,169,4.0,4.0,65,0.00,,,0.00,Wunderground v.1.15,2013-01-19 13:50:00,
2013-01-19 09:00:00,40.9,29.7,30.35,East,101,3.0,3.0,64,0.00,,,0.00,Wunderground v.1.15,2013-01-19 14:00:00,
2013-01-19 09:05:00,41.0,29.4,30.36,SSW,205,3.0,4.0,63,0.00,,,0.00,Wunderground v.1.15,2013-01-19 14:05:00,
2013-01-19 09:10:00,41.0,29.4,30.36,SW,216,4.0,4.0,63,0.00,,,0.00,Wunderground v.1.15,2013-01-19 14:10:00,
2013-01-19 09:20:00,41.7,29.6,30.35,SSW,192,3.0,13.0,62,0.00,,,0.00,Wunderground v.1.15,2013-01-19 14:20:00,
2013-01-19 09:25:00,41.9,29.8,30.35,SW,227,4.0,13.0,62,0.00,,,0.00,Wunderground v.1.15,2013-01-19 14:25:00,
2013-01-19 09:30:00,42.1,30.0,30.35,South,171,3.0,13.0,62,0.00,,,0.00,Wunderground v.1.15,2013-01-19 14:30:00,
2013-01-19 09:35:00,42.3,29.8,30.35,SSW,194,3.0,13.0,61,0.00,,,0.00,Wunderground v.1.15,2013-01-19 14:35:00,
2013-01-19 09:40:00,42.7,29.8,30.35,SW,215,3.0,13.0,60,0.00,,,0.00,Wunderground v.1.15,2013-01-19 14:40:00,
2013-01-19 09:50:00,43.3,29.5,30.34,SSW,194,3.0,13.0,58,0.00,,,0.00,Wunderground v.1.15,2013-01-19 14:50:00,
2013-01-19 09:55:00,43.4,29.2,30.34,South,176,3.0,13.0,57,0.00,,,0.00,Wunderground v.1.15,2013-01-19 14:55:00,
2013-01-19 10:00:00,43.5,29.3,30.34,SW,218,3.0,13.0,57,0.00,,,0.00,Wunderground v.1.15,2013-01-19 15:00:00,
2013-01-19 10:05:00,43.6,29.4,30.34,WSW,254,4.0,13.0,57,0.00,,,0.00,Wunderground v.1.15,2013-01-19 15:05:00,
2013-01-19 10:10:00,44.0,29.3,30.33,SW,215,4.0,4.0,56,0.00,,,0.00,Wunderground v.1.15,2013-01-19 15:10:00,
2013-01-19 10:20:00,44.7,29.1,30.33,South,171,3.0,3.0,54,0.00,,,0.00,Wunderground v.1.15,2013-01-19 15:20:00,
2013-01-19 10:25:00,45.1,29.0,30.33,WSW,253,2.0,13.0,53,0.00,,,0.00,Wunderground v.1.15,2013-01-19 15:25:00,
2013-01-19 10:30:00,45.8,29.6,30.32,South,177,2.0,13.0,53,0.00,,,0.00,Wunderground v.1.15,2013-01-19 15:30:00,
2013-01-19 10:35:00,46.0,29.3,30.32,SSW,198,2.0,13.0,52,0.00,,,0.00,Wunderground v.1.15,2013-01-19 15:35:00,
2013-01-19 10:40:00,46.1,28.5,30.32,SSW,193,2.0,2.0,50,0.00,,,0.00,Wunderground v.1.15,2013-01-19 15:40:00,
2013-01-19 10:50:00,46.1,29.0,30.31,SW,225,3.0,13.0,51,0.00,,,0.00,Wunderground v.1.15,2013-01-19 15:50:00,
2013-01-19 10:55:00,46.3,29.1,30.31,SSW,209,3.0,13.0,51,0.00,,,0.00,Wunderground v.1.15,2013-01-19 15:55:00,
2013-01-19 11:00:00,46.2,29.1,30.31,SSE,155,3.0,3.0,51,0.00,,,0.00,Wunderground v.1.15,2013-01-19 16:00:00,
2013-01-19 11:05:00,46.0,28.4,30.31,SSW,204,5.0,5.0,50,0.00,,,0.00,Wunderground v.1.15,2013-01-19 16:05:00,
2013-01-19 11:15:00,46.0,29.3,30.30,South,169,5.0,13.0,52,0.00,,,0.00,Wunderground v.1.15,2013-01-19 16:15:00,
2013-01-19 11:20:00,46.4,30.2,30.29,SW,233,4.0,4.0,53,0.00,,,0.00,Wunderground v.1.15,2013-01-19 16:20:00,
2013-01-19 11:25:00,46.1,29.4,30.29,South,177,4.0,16.0,52,0.00,,,0.00,Wunderground v.1.15,2013-01-19 16:25:00,
2013-01-19 11:30:00,45.9,29.2,30.28,SSW,194,6.0,6.0,52,0.00,,,0.00,Wunderground v.1.15,2013-01-19 16:30:00,
2013-01-19 11:40:00,46.3,30.1,30.27,SSW,200,5.0,5.0,53,0.00,,,0.00,Wunderground v.1.15,2013-01-19 16:40:00,
2013-01-19 11:45:00,46.5,30.7,30.26,WSW,238,5.0,13.0,54,0.00,,,0.00,Wunderground v.1.15,2013-01-19 16:45:00,
2013-01-19 11:50:00,47.0,31.2,30.26,SSW,211,3.0,13.0,54,0.00,,,0.00,Wunderground v.1.15,2013-01-19 16:50:00,
2013-01-19 11:55:00,47.4,31.6,30.25,SSE,159,3.0,13.0,54,0.00,,,0.00,Wunderground v.1.15,2013-01-19 16:55:00,
2013-01-19 12:05:00,47.5,31.7,30.24,South,178,5.0,13.0,54,0.00,,,0.00,Wunderground v.1.15,2013-01-19 17:05:00,
2013-01-19 12:10:00,47.9,31.1,30.24,South,179,4.0,4.0,52,0.00,,,0.00,Wunderground v.1.15,2013-01-19 17:10:00,
2013-01-19 12:15:00,48.2,30.9,30.24,SSW,202,4.0,10.0,51,0.00,,,0.00,Wunderground v.1.15,2013-01-19 17:15:00,
2013-01-19 12:25:00,48.4,30.6,30.23,SSE,150,6.0,13.0,50,0.00,,,0.00,Wunderground v.1.15,2013-01-19 17:25:00,
2013-01-19 12:35:00,48.9,30.6,30.22,South,188,5.0,13.0,49,0.00,,,0.00,Wunderground v.1.15,2013-01-19 17:35:00,
2013-01-19 12:40:00,49.4,30.5,30.21,SW,217,4.0,4.0,48,0.00,,,0.00,Wunderground v.1.15,2013-01-19 17:40:00,
2013-01-19 12:50:00,49.8,29.3,30.21,SSW,204,5.0,5.0,45,0.00,,,0.00,Wunderground v.1.15,2013-01-19 17:50:00,
2013-01-19 12:55:00,50.2,29.7,30.20,South,184,4.0,13.0,45,0.00,,,0.00,Wunderground v.1.15,2013-01-19 17:55:00,
2013-01-19 13:00:00,51.0,30.9,30.20,SSW,204,3.0,3.0,46,0.00,,,0.00,Wunderground v.1.15,2013-01-19 18:00:00,
2013-01-19 13:10:00,51.2,30.6,30.20,WSW,252,4.0,4.0,45,0.00,,,0.00,Wunderground v.1.15,2013-01-19 18:10:00,
2013-01-19 13:20:00,51.4,30.2,30.19,SSW,198,4.0,13.0,44,0.00,,,0.00,Wunderground v.1.15,2013-01-19 18:20:00,
2013-01-19 13:30:00,51.7,29.9,30.19,South,184,5.0,5.0,43,0.00,,,0.00,Wunderground v.1.15,2013-01-19 18:30:00,
2013-01-19 13:35:00,52.0,29.0,30.18,SSW,207,4.0,13.0,41,0.00,,,0.00,Wunderground v.1.15,2013-01-19 18:35:00,
2013-01-19 13:40:00,52.3,29.3,30.18,SW,230,4.0,13.0,41,0.00,,,0.00,Wunderground v.1.15,2013-01-19 18:40:00,
2013-01-19 13:45:00,52.3,28.7,30.18,SSW,202,4.0,13.0,40,0.00,,,0.00,Wunderground v.1.15,2013-01-19 18:45:00,
2013-01-19 13:50:00,52.3,28.7,30.18,SW,227,5.0,5.0,40,0.00,,,0.00,Wunderground v.1.15,2013-01-19 18:50:00,
2013-01-19 14:00:00,52.7,28.4,30.17,South,186,4.0,4.0,39,0.00,,,0.00,Wunderground v.1.15,2013-01-19 19:00:00,
2013-01-19 14:05:00,53.2,28.2,30.17,West,275,3.0,13.0,38,0.00,,,0.00,Wunderground v.1.15,2013-01-19 19:05:00,
2013-01-19 14:10:00,53.1,27.5,30.17,SSE,151,3.0,3.0,37,0.00,,,0.00,Wunderground v.1.15,2013-01-19 19:10:00,
2013-01-19 14:20:00,53.0,27.4,30.17,WSW,253,6.0,6.0,37,0.00,,,0.00,Wunderground v.1.15,2013-01-19 19:20:00,
2013-01-19 14:25:00,53.2,27.6,30.16,SSE,157,5.0,13.0,37,0.00,,,0.00,Wunderground v.1.15,2013-01-19 19:25:00,
2013-01-19 14:30:00,53.2,28.2,30.16,South,190,5.0,5.0,38,0.00,,,0.00,Wunderground v.1.15,2013-01-19 19:30:00,
2013-01-19 14:35:00,53.4,29.0,30.16,SW,216,4.0,13.0,39,0.00,,,0.00,Wunderground v.1.15,2013-01-19 19:35:00,
2013-01-19 14:45:00,53.9,29.5,30.15,SSW,213,3.0,13.0,39,0.00,,,0.00,Wunderground v.1.15,2013-01-19 19:45:00,
2013-01-19 14:50:00,53.7,28.7,30.15,South,187,4.0,13.0,38,0.00,,,0.00,Wunderground v.1.15,2013-01-19 19:50:00,
2013-01-19 15:00:00,53.6,28.6,30.15,SSW,196,4.0,13.0,38,0.00,,,0.00,Wunderground v.1.15,2013-01-19 20:00:00,
2013-01-19 15:05:00,53.8,28.8,30.14,SW,217,4.0,13.0,38,0.00,,,0.00,Wunderground v.1.15,2013-01-19 20:05:00,
2013-01-19 15:15:00,53.4,27.8,30.14,South,184,5.0,5.0,37,0.00,,,0.00,Wunderground v.1.15,2013-01-19 20:15:00,
2013-01-19 15:20:00,53.6,29.2,30.14,South,189,4.0,4.0,39,0.00,,,0.00,Wunderground v.1.15,2013-01-19 20:20:00,
2013-01-19 15:25:00,53.9,28.8,30.14,SSW,207,2.0,13.0,38,0.00,,,0.00,Wunderground v.1.15,2013-01-19 20:25:00,
2013-01-19 15:30:00,53.7,28.7,30.13,SSE,155,3.0,13.0,38,0.00,,,0.00,Wunderground v.1.15,2013-01-19 20:30:00,
2013-01-19 15:40:00,53.9,30.1,30.13,South,191,2.0,13.0,40,0.00,,,0.00,Wunderground v.1.15,2013-01-19 20:40:00,
2013-01-19 15:50:00,53.7,30.5,30.13,SSW,202,2.0,13.0,41,0.00,,,0.00,Wunderground v.1.15,2013-01-19 20:50:00,
2013-01-19 15:55:00,53.2,30.7,30.12,SW,217,3.0,13.0,42,0.00,,,0.00,Wunderground v.1.15,2013-01-19 20:55:00,
2013-01-19 16:00:00,53.1,30.6,30.12,SSW,208,3.0,13.0,42,0.00,,,0.00,Wunderground v.1.15,2013-01-19 21:00:00,
2013-01-19 16:05:00,52.9,30.4,30.12,South,183,2.0,13.0,42,0.00,,,0.00,Wunderground v.1.15,2013-01-19 21:05:00,
2013-01-19 16:10:00,52.5,30.6,30.12,SSW,192,3.0,3.0,43,0.00,,,0.00,Wunderground v.1.15,2013-01-19 21:10:00,
2013-01-19 16:20:00,51.9,31.7,30.11,SSW,208,1.0,13.0,46,0.00,,,0.00,Wunderground v.1.15,2013-01-19 21:20:00,
2013-01-19 16:30:00,50.7,31.2,30.11,SSW,194,1.0,13.0,47,0.00,,,0.00,Wunderground v.1.15,2013-01-19 21:30:00,
2013-01-19 16:35:00,50.3,30.8,30.11,SSW,205,2.0,13.0,47,0.00,,,0.00,Wunderground v.1.15,2013-01-19 21:35:00,
2013-01-19 16:40:00,49.9,33.9,30.11,South,175,2.0,2.0,54,0.00,,,0.00,Wunderground v.1.15,2013-01-19 21:40:00,
2013-01-19 16:45:00,48.8,35.9,30.10,SSW,194,1.0,13.0,61,0.00,,,0.00,Wunderground v.1.15,2013-01-19 21:45:00,
2013-01-19 16:50:00,47.9,36.3,30.10,SSE,147,1.0,13.0,64,0.00,,,0.00,Wunderground v.1.15,2013-01-19 21:50:00,
2013-01-19 17:00:00,46.4,36.8,30.10,SSW,195,1.0,13.0,69,0.00,,,0.00,Wunderground v.1.15,2013-01-19 22:00:00,
2013-01-19 17:05:00,45.9,36.7,30.10,South,171,1.0,13.0,70,0.00,,,0.00,Wunderground v.1.15,2013-01-19 22:05:00,
2013-01-19 17:15:00,45.2,36.7,30.10,South,178,2.0,3.0,72,0.00,,,0.00,Wunderground v.1.15,2013-01-19 22:15:00,
2013-01-19 17:25:00,44.8,36.7,30.09,South,180,1.0,13.0,73,0.00,,,0.00,Wunderground v.1.15,2013-01-19 22:25:00,
2013-01-19 17:35:00,44.3,37.5,30.10,SSW,212,2.0,4.0,77,0.00,,,0.00,Wunderground v.1.15,2013-01-19 22:35:00,
2013-01-19 17:40:00,44.0,37.6,30.10,South,173,2.0,2.0,78,0.00,,,0.00,Wunderground v.1.15,2013-01-19 22:40:00,
2013-01-19 17:45:00,43.8,37.7,30.10,SSW,209,1.0,13.0,79,0.00,,,0.00,Wunderground v.1.15,2013-01-19 22:45:00,
2013-01-19 17:55:00,43.3,37.9,30.09,South,175,1.0,13.0,81,0.00,,,0.00,Wunderground v.1.15,2013-01-19 22:55:00,
2013-01-19 18:00:00,43.2,37.8,30.09,South,186,1.0,13.0,81,0.00,,,0.00,Wunderground v.1.15,2013-01-19 23:00:00,
2013-01-19 18:10:00,42.9,37.2,30.09,South,186,1.0,1.0,80,0.00,,,0.00,Wunderground v.1.15,2013-01-19 23:10:00,
2013-01-19 18:15:00,42.9,36.8,30.09,South,188,1.0,2.0,79,0.00,,,0.00,Wunderground v.1.15,2013-01-19 23:15:00,
2013-01-19 18:25:00,43.1,36.0,30.09,SW,219,1.0,13.0,76,0.00,,,0.00,Wunderground v.1.15,2013-01-19 23:25:00,
2013-01-19 18:30:00,43.1,35.7,30.09,SSW,192,2.0,2.0,75,0.00,,,0.00,Wunderground v.1.15,2013-01-19 23:30:00,
2013-01-19 18:40:00,43.2,35.8,30.09,SSW,207,2.0,2.0,75,0.00,,,0.00,Wunderground v.1.15,2013-01-19 23:40:00,
2013-01-19 18:45:00,43.3,35.6,30.09,SSW,213,2.0,13.0,74,0.00,,,0.00,Wunderground v.1.15,2013-01-19 23:45:00,
2013-01-19 18:50:00,43.3,35.6,30.09,SSW,206,2.0,13.0,74,0.00,,,0.00,Wunderground v.1.15,2013-01-19 23:50:00,
2013-01-19 18:55:00,43.2,35.5,30.09,SSW,197,2.0,13.0,74,0.00,,,0.00,Wunderground v.1.15,2013-01-19 23:55:00,
2013-01-19 19:05:00,43.3,34.9,30.09,SSW,209,2.0,13.0,72,0.00,,,0.00,Wunderground v.1.15,2013-01-20 00:05:00,
2013-01-19 19:15:00,43.5,34.7,30.08,SSW,198,2.0,13.0,71,0.00,,,0.00,Wunderground v.1.15,2013-01-20 00:15:00,
2013-01-19 19:20:00,43.7,34.6,30.08,South,178,2.0,2.0,70,0.00,,,0.00,Wunderground v.1.15,2013-01-20 00:20:00,
2013-01-19 19:25:00,44.0,34.5,30.08,South,181,3.0,5.0,69,0.00,,,0.00,Wunderground v.1.15,2013-01-20 00:25:00,
2013-01-19 19:30:00,44.3,34.4,30.08,SSE,159,4.0,13.0,68,0.00,,,0.00,Wunderground v.1.15,2013-01-20 00:30:00,
2013-01-19 19:40:00,44.6,34.7,30.08,SSW,212,3.0,13.0,68,0.00,,,0.00,Wunderground v.1.15,2013-01-20 00:40:00,
2013-01-19 19:45:00,44.6,34.7,30.08,SSW,211,3.0,13.0,68,0.00,,,0.00,Wunderground v.1.15,2013-01-20 00:45:00,
2013-01-19 19:50:00,44.5,35.0,30.08,South,175,3.0,3.0,69,0.00,,,0.00,Wunderground v.1.15,2013-01-20 00:50:00,
2013-01-19 20:00:00,44.3,34.8,30.08,SSW,213,3.0,13.0,69,0.00,,,0.00,Wunderground v.1.15,2013-01-20 01:00:00,
2013-01-19 20:05:00,44.2,35.0,30.07,SE,138,3.0,13.0,70,0.00,,,0.00,Wunderground v.1.15,2013-01-20 01:05:00,
2013-01-19 20:10:00,44.0,34.8,30.07,SW,226,3.0,3.0,70,0.00,,,0.00,Wunderground v.1.15,2013-01-20 01:10:00,
2013-01-19 20:15:00,43.9,34.7,30.07,SSE,167,3.0,13.0,70,0.00,,,0.00,Wunderground v.1.15,2013-01-20 01:15:00,
2013-01-19 20:25:00,43.9,35.1,30.07,SW,230,4.0,9.0,71,0.00,,,0.00,Wunderground v.1.15,2013-01-20 01:25:00,
2013-01-19 20:30:00,43.9,35.1,30.07,South,178,3.0,3.0,71,0.00,,,0.00,Wunderground v.1.15,2013-01-20 01:30:00,
2013-01-19 20:35:00,43.9,35.1,30.07,South,183,3.0,13.0,71,0.00,,,0.00,Wunderground v.1.15,2013-01-20 01:35:00,
2013-01-19 20:40:00,43.9,35.1,30.07,South,173,3.0,13.0,71,0.00,,,0.00,Wunderground v.1.15,2013-01-20 01:40:00,
2013-01-19 20:50:00,44.0,34.8,30.06,SSW,209,4.0,4.0,70,0.00,,,0.00,Wunderground v.1.15,2013-01-20 01:50:00,
2013-01-19 20:55:00,44.1,34.9,30.06,South,169,4.0,13.0,70,0.00,,,0.00,Wunderground v.1.15,2013-01-20 01:55:00,
2013-01-19 21:00:00,44.0,34.8,30.05,SSW,192,3.0,3.0,70,0.00,,,0.00,Wunderground v.1.15,2013-01-20 02:00:00,
2013-01-19 21:10:00,43.8,35.0,30.05,WSW,241,3.0,13.0,71,0.00,,,0.00,Wunderground v.1.15,2013-01-20 02:10:00,
2013-01-19 21:15:00,43.9,35.1,30.05,WSW,252,4.0,13.0,71,0.00,,,0.00,Wunderground v.1.15,2013-01-20 02:15:00,
2013-01-19 21:20:00,43.8,35.0,30.05,South,170,4.0,13.0,71,0.00,,,0.00,Wunderground v.1.15,2013-01-20 02:20:00,
2013-01-19 21:25:00,43.7,34.6,30.05,SSW,198,3.0,13.0,70,0.00,,,0.00,Wunderground v.1.15,2013-01-20 02:25:00,
2013-01-19 21:35:00,44.0,34.5,30.04,SSW,208,3.0,13.0,69,0.00,,,0.00,Wunderground v.1.15,2013-01-20 02:35:00,
2013-01-19 21:45:00,44.5,34.2,30.04,SSE,165,4.0,4.0,67,0.00,,,0.00,Wunderground v.1.15,2013-01-20 02:45:00,
2013-01-19 21:55:00,44.7,33.6,30.04,SSW,202,4.0,13.0,65,0.00,,,0.00,Wunderground v.1.15,2013-01-20 02:55:00,
2013-01-19 22:00:00,44.8,33.7,30.04,SW,218,4.0,13.0,65,0.00,,,0.00,Wunderground v.1.15,2013-01-20 03:00:00,
2013-01-19 22:10:00,45.0,33.2,30.03,SSW,208,4.0,13.0,63,0.00,,,0.00,Wunderground v.1.15,2013-01-20 03:10:00,
2013-01-19 22:15:00,45.1,32.8,30.03,South,178,5.0,13.0,62,0.00,,,0.00,Wunderground v.1.15,2013-01-20 03:15:00,
2013-01-19 22:20:00,45.1,32.8,30.03,SW,219,4.0,13.0,62,0.00,,,0.00,Wunderground v.1.15,2013-01-20 03:20:00,
2013-01-19 22:25:00,45.1,32.4,30.03,SSW,194,4.0,13.0,61,0.00,,,0.00,Wunderground v.1.15,2013-01-20 03:25:00,
2013-01-19 22:35:00,45.1,32.4,30.02,South,190,5.0,7.0,61,0.00,,,0.00,Wunderground v.1.15,2013-01-20 03:35:00,
2013-01-19 22:40:00,45.0,32.8,30.02,SSW,205,4.0,4.0,62,0.00,,,0.00,Wunderground v.1.15,2013-01-20 03:40:00,
2013-01-19 22:45:00,45.0,32.8,30.01,South,184,5.0,6.0,62,0.00,,,0.00,Wunderground v.1.15,2013-01-20 03:45:00,
2013-01-19 22:50:00,45.0,32.3,30.01,WSW,244,5.0,5.0,61,0.00,,,0.00,Wunderground v.1.15,2013-01-20 03:50:00,
2013-01-19 23:00:00,45.0,32.3,30.01,SE,137,5.0,5.0,61,0.00,,,0.00,Wunderground v.1.15,2013-01-20 04:00:00,
2013-01-19 23:05:00,45.0,32.3,30.00,SSW,203,5.0,9.0,61,0.00,,,0.00,Wunderground v.1.15,2013-01-20 04:05:00,
2013-01-19 23:15:00,45.0,32.3,30.00,South,175,5.0,13.0,61,0.00,,,0.00,Wunderground v.1.15,2013-01-20 04:15:00,
2013-01-19 23:20:00,44.9,32.7,30.00,South,182,4.0,13.0,62,0.00,,,0.00,Wunderground v.1.15,2013-01-20 04:20:00,
2013-01-19 23:25:00,44.8,32.6,29.99,South,169,4.0,13.0,62,0.00,,,0.00,Wunderground v.1.15,2013-01-20 04:25:00,
2013-01-19 23:30:00,44.7,32.5,29.98,South,191,4.0,4.0,62,0.00,,,0.00,Wunderground v.1.15,2013-01-20 04:30:00,
2013-01-19 23:35:00,44.6,32.4,29.98,SSW,203,4.0,13.0,62,0.00,,,0.00,Wunderground v.1.15,2013-01-20 04:35:00,
2013-01-19 23:45:00,44.6,32.8,29.97,SSW,211,5.0,13.0,63,0.00,,,0.00,Wunderground v.1.15,2013-01-20 04:45:00,
2013-01-19 23:50:00,44.6,32.4,29.97,SW,230,5.0,13.0,62,0.00,,,0.00,Wunderground v.1.15,2013-01-20 04:50:00,
2013-01-19 23:55:00,44.6,32.8,29.97,SW,230,5.0,13.0,63,0.00,,,0.00,Wunderground v.1.15,2013-01-20 04:55:00,